Location: Briis
(48.6240°N, 2.1211°E)
Time: 00:42:09
(UTC+00:00)

Cosmos 2322 Rocket - Pass Details

Date: 25 September 2020
Orbit: 831 x 852 km, 71.0° (Epoch: 23 October)

Event Time Altitude Azimuth Distance (km) Brightness Sun altitude
Exits shadow 04:35:59 15° 244° (WSW) 2,142 3.7 -11.8°
Maximum altitude 04:40:19 39° 308° (NW) 1,251 2.8 -11.1°
Drops below altitude 10° 04:45:40 10° 17° (NNE) 2,490 5.0 -10.2°
Sets 04:48:18 0° 25° (NNE) 3,431 5.9 -9.8°
